Back to catalog

NOAA 16 DEB

AlivePO
NORAD 41707·DEBRIS·🇺🇸 United States

Launched Sep 21, 2000 from Vandenberg Space Force Base

Loading…

Next Passes (next 24 hours)

TLE

FreshSource: Space-Track

Epoch: Sep 14, 2026, 06:29 UTC

1 41707U 00055PM  26257.27041746  .00005376  00000-0  12946-2 0  9997
2 41707  98.8501  53.4236 0021185 213.8991 146.0851 14.53577201541881

Track NOAA 16 DEB in real time with AllMySat

Download on the App Store